Wind_Speed
30 29 25 21 20 18 17 17 16 14 16 16 18 19 17 17 18 19 20 23 24 23 22 20 20 19 19 19 20 20 20 20 22 22 18 18 18 18 19 22 24 17 16
35 30 26 22 20 18 18 18 17 15 18 19 20 19 18 17 18 18 19 20 20 20 20 18 18 18 18 20 21 20 19 17 16 21 19 18 19 18 18 19 19 18 16
35 30 26 23 21 19 19 17 16 16 19 20 20 19 18 17 18 18 18 19 18 18 17 16 17 16 19 19 19 18 17 14 13 14 19 18 18 16 16 15 15 14 15
34 30 27 23 21 21 19 17 15 15 20 18 19 18 17 17 17 18 18 18 18 16 17 16 15 15 16 18 19 19 19 18 17 18 16 13 12 12 13 13 13 13 12
32 29 27 24 22 20 18 16 13 17 19 19 17 16 17 17 17 17 17 18 17 16 16 15 16 16 16 17 18 18 18 17 15 13 12 8 11 11 13 13 14 14 14
27 27 25 24 22 20 18 15 15 17 19 19 17 15 17 17 17 17 17 17 16 16 15 15 15 15 15 15 15 15 15 14 11 9 8 8 9 11 12 13 14 13 13
27 27 24 23 21 19 17 16 15 17 18 18 17 14 15 15 15 16 16 16 16 15 14 13 13 13 12 12 13 13 12 11 10 7 7 5 7 9 10 12 13 13 13
29 27 24 21 21 18 16 15 15 18 18 19 17 14 14 12 13 14 15 14 13 12 12 11 10 10 10 10 10 10 10 10 9 5 4 6 5 6 6 8 10 11 12
28 27 24 22 20 18 16 14 16 18 18 19 16 14 13 12 10 12 13 13 11 11 10 9 8 7 7 8 8 9 9 8 8 6 4 7 3 3 3 4 6 8 10
26 26 25 24 22 20 17 14 15 17 17 17 17 15 11 7 7 9 9 10 9 8 7 7 6 6 6 6 6 6 6 6 6 4 3 6 3 2 2 4 3 5 8
25 25 23 23 23 21 18 15 14 15 16 17 16 12 8 7 8 9 9 7 7 7 6 5 5 4 5 6 6 6 4 4 3 3 4 5 5 2 2 4 4 5 7
25 25 22 22 22 22 21 15 12 13 14 15 14 11 8 7 7 8 5 5 6 5 5 4 3 4 4 2 2 3 2 4 2 3 5 6 8 6 4 5 7 7 7
21 25 23 20 21 21 22 19 13 12 12 12 11 11 10 9 10 5 3 5 6 5 5 4 4 3 1 3 3 2 3 5 4 3 5 8 8 7 6 5 8 6 7
23 23 21 19 19 23 22 20 16 12 12 13 10 11 9 12 6 7 6 3 4 4 4 3 1 3 3 4 3 3 5 6 7 6 7 9 9 9 8 6 7 8 8
22 22 25 17 21 25 19 20 17 12 16 14 14 11 13 10 10 9 8 8 5 4 5 5 4 4 6 7 7 6 8 8 7 9 10 11 11 10 10 10 9 10 9
24 25 24 22 19 22 18 20 17 13 14 15 16 15 13 10 10 12 10 9 7 8 6 7 7 7 8 7 8 8 8 10 11 11 14 14 13 13 11 10 11 11 12
18 26 27 24 22 22 18 18 17 15 15 15 17 15 14 12 11 8 11 10 10 10 9 9 8 8 9 10 10 9 11 14 13 15 16 17 14 16 15 13 11 10 11
20 25 22 22 19 18 19 18 16 16 17 14 18 15 14 14 13 11 10 9 9 9 9 9 10 9 9 11 12 12 13 13 12 15 13 11 9 12 14 13 11 9 11
18 22 25 24 25 21 20 20 18 17 18 14 17 15 15 15 14 14 12 10 9 9 9 9 8 9 11 13 15 16 17 16 16 16 18 17 16 12 11 6 7 9 7
20 21 22 23 23 21 20 18 17 19 13 16 16 13 15 14 14 15 13 11 10 11 10 10 12 13 15 16 16 17 18 20 22 25 24 17 13 7 3 3 6 5 4
20 22 23 25 25 23 23 22 20 20 17 16 15 15 14 13 12 13 13 12 10 12 13 11 11 13 15 14 16 18 19 21 19 19 21 16 8 5 1 4 4 3 5
24 24 24 27 27 27 24 24 20 21 19 16 16 13 14 14 14 12 13 13 14 15 14 15 15 15 18 19 12 5 3 7 11 11 6 10 6 2 3 4 2 2 4
22 25 27 26 26 26 26 22 20 19 18 19 19 18 17 17 16 15 14 14 15 16 17 19 20 19 20 20 18 11 2 3 3 2 3 3 2 1 4 4 3 2 4
26 22 25 27 26 26 26 26 26 24 19 18 19 17 15 14 15 16 16 15 15 15 16 15 14 15 14 17 13 15 18 12 2 3 3 4 4 6 11 8 6 3 4
24 22 22 21 25 27 26 25 25 23 17 17 17 17 14 12 11 11 10 10 10 10 10 11 12 13 12 14 14 15 14 15 15 11 4 6 5 5 11 9 7 3 2
15 14 16 19 18 17 18 17 19 20 19 17 16 15 11 9 8 7 7 7 8 9 9 10 11 12 13 13 13 14 18 10 6 8 3 6 7 3 10 8 5 3 1
Wind_Direction
154 154 149 144 138 132 128 124 115 107 106 108 109 99 93 91 89 88 88 90 92 93 93 90 88 86 87 88 87 88 87 83 79 71 74 85 79 73 71 63 60 68 60
153 153 150 144 141 137 131 126 122 110 110 111 106 98 94 93 96 96 96 96 95 94 93 91 90 90 89 92 91 88 82 75 77 73 76 82 79 75 65 62 62 62 51
150 151 150 146 144 136 130 127 122 116 118 113 106 100 97 98 100 101 103 103 102 99 96 93 92 95 91 92 95 85 75 76 74 93 77 80 75 69 63 57 56 58 58
148 149 150 149 142 138 135 130 125 125 126 119 109 106 101 101 104 106 105 106 105 106 101 98 96 97 95 93 97 85 80 85 84 91 79 77 72 61 58 60 58 55 57
146 148 149 148 145 142 137 131 129 132 131 123 114 112 103 104 105 107 110 111 111 110 104 100 98 98 99 98 98 94 88 87 93 93 96 80 70 61 58 56 61 60 57
144 149 150 149 146 144 139 134 127 132 134 127 125 119 107 106 106 107 110 114 113 111 107 102 100 101 101 98 99 93 91 91 85 89 78 70 64 67 61 64 64 59 55
150 150 150 149 146 145 140 134 129 133 136 136 130 121 110 106 109 109 108 111 113 114 111 105 101 99 100 98 96 99 92 86 78 71 60 51 79 79 75 70 65 57 52
150 151 149 149 148 145 139 129 129 132 136 140 137 138 114 110 110 115 115 116 117 117 115 110 103 98 95 93 91 92 90 83 72 51 64 50 86 92 80 64 59 54 49
153 152 150 151 151 146 140 129 134 139 139 145 144 141 124 115 115 123 124 123 123 122 121 116 109 100 94 90 88 93 96 79 73 47 59 23 83 99 59 41 43 39 35
154 157 154 154 153 149 143 134 138 143 141 149 154 150 136 124 125 128 131 127 128 126 123 120 116 106 94 83 74 77 91 74 61 41 20 8 19 97 337 325 355 11 19
152 157 160 158 157 153 147 137 136 152 148 149 155 155 151 130 142 143 142 139 138 134 127 119 109 101 101 84 70 72 73 55 41 344 330 337 347 324 311 255 295 322 353
154 159 162 164 164 161 155 150 142 146 165 162 167 170 169 156 146 148 152 164 160 149 134 112 100 103 102 78 56 33 19 358 314 297 314 318 328 324 295 275 273 288 326
169 163 163 172 173 170 168 163 161 152 152 158 172 181 180 176 172 174 188 201 183 173 161 115 103 101 45 338 315 351 327 324 336 305 294 306 310 319 302 294 243 270 295
176 171 166 177 192 183 178 172 167 169 175 177 165 160 187 175 192 209 194 170 170 167 169 185 180 252 244 327 311 316 307 300 308 311 296 299 303 313 309 289 256 271 278
187 180 172 179 189 185 183 180 174 177 191 193 182 183 183 209 202 201 207 208 212 195 224 236 245 274 268 281 280 275 283 285 296 296 291 288 296 296 301 297 267 269 274
201 188 175 186 186 188 188 189 185 191 199 194 195 195 200 207 203 199 196 205 217 224 214 233 244 255 254 268 276 274 278 282 283 290 293 289 288 290 288 300 301 278 265
172 184 185 182 195 194 196 196 194 200 196 204 202 196 200 198 205 196 197 207 219 222 227 231 240 249 263 270 277 280 287 285 274 293 298 290 288 297 294 287 292 300 292
176 179 179 187 193 199 200 200 199 201 220 213 197 200 200 205 206 207 206 217 212 219 219 229 248 258 268 276 282 286 286 294 290 292 291 298 290 302 296 289 283 292 289
193 194 189 192 192 200 202 205 208 209 212 213 199 207 213 212 208 212 211 218 223 232 235 241 249 261 268 280 283 288 292 292 294 289 287 289 299 297 288 288 291 313 310
198 199 199 201 198 203 207 200 203 211 214 208 206 212 211 214 211 214 217 221 232 240 242 255 265 272 277 281 285 288 288 292 290 290 280 283 285 265 242 282 310 313 313
200 203 201 195 192 192 193 193 200 210 211 214 212 214 217 221 220 223 224 227 232 243 256 261 265 273 280 282 295 289 284 288 283 290 284 273 221 178 168 336 338 317 292
196 201 208 206 202 200 201 201 199 205 210 212 214 212 206 198 210 217 228 233 241 251 256 260 267 279 281 282 275 282 283 296 296 296 266 172 165 99 35 36 38 315 308
194 199 201 206 207 205 206 205 208 206 212 218 222 224 215 223 232 233 238 245 249 255 262 268 271 274 277 278 276 255 298 224 327 19 126 154 321 104 142 149 179 268 296
205 196 203 205 204 209 205 204 203 202 193 206 198 194 199 202 219 239 246 251 254 254 256 263 265 266 269 266 268 252 251 258 217 293 248 232 211 166 178 169 201 225 281
201 186 191 200 207 206 210 214 212 215 205 191 184 190 201 207 223 232 239 247 253 258 261 265 263 260 257 259 262 261 261 256 251 242 249 251 196 173 168 179 194 226 277
194 189 186 189 194 191 191 190 195 197 182 184 181 182 194 210 212 225 240 253 264 266 266 265 265 265 263 258 258 255 255 245 225 221 208 230 216 140 166 165 167 174 246
Height
810 813 817 821 824 826 827 829 830 831 832 833 834 836 837 838 838 839 839 840 841 842 843 844 844 845 845 846 846 847 847 848 847 847 847 847 847 847 847 846 845 844 844
806 812 816 820 823 826 828 829 831 832 833 834 835 837 838 840 840 841 842 843 844 844 845 846 847 847 848 848 849 850 850 850 850 849 849 849 849 849 849 848 848 847 846
806 812 817 820 823 826 829 830 831 833 834 836 837 839 840 841 843 843 844 845 846 847 848 849 849 850 850 851 851 852 852 851 851 851 851 851 851 851 850 850 849 848 848
807 812 817 821 824 826 829 831 833 834 835 837 838 840 841 843 844 845 845 846 848 850 850 850 851 852 852 852 853 853 853 853 853 852 853 853 853 852 851 850 850 849 848
809 814 817 821 824 827 829 831 833 834 836 838 840 841 843 844 845 846 847 848 849 850 851 852 852 853 854 854 854 854 855 855 855 855 854 854 854 854 853 852 850 849 849
813 816 819 822 825 828 830 832 834 836 838 839 841 842 844 845 847 847 848 849 850 851 853 853 854 854 855 855 856 856 856 856 856 856 856 856 856 856 855 853 852 851 850
814 817 821 823 826 830 831 832 834 836 838 840 842 844 845 846 847 848 849 850 851 852 853 854 855 855 856 857 857 857 857 858 858 858 857 856 856 857 856 855 854 853 852
814 818 821 825 827 831 833 834 835 837 839 841 843 845 846 847 848 849 850 852 853 854 854 855 856 857 857 858 858 858 858 858 859 858 858 857 857 857 857 856 855 854 853
816 819 821 825 828 830 834 835 836 837 839 842 843 845 846 847 849 850 851 852 853 854 855 855 857 858 858 858 859 859 860 859 859 859 858 858 858 858 857 857 856 855 854
817 820 821 824 828 830 834 835 837 838 840 842 844 845 847 847 849 851 853 853 854 855 855 856 857 857 858 858 859 859 860 859 859 859 858 858 858 858 857 857 856 855 854
818 820 824 824 827 829 832 835 837 839 841 843 845 847 848 848 849 850 852 853 854 855 856 856 857 858 858 858 859 859 859 859 859 859 858 858 857 857 856 856 856 855 854
817 821 824 826 828 829 831 834 837 839 841 842 845 847 848 849 849 850 852 852 853 854 855 857 857 857 858 858 858 859 859 859 859 858 858 857 857 856 856 855 855 854 854
815 819 823 826 828 829 830 832 836 839 841 843 844 846 847 848 850 850 852 853 852 854 854 855 857 858 858 858 858 858 858 858 859 858 857 857 856 855 855 853 853 853 852
814 816 821 826 829 829 831 831 834 838 840 841 844 846 847 848 849 850 851 852 853 854 855 855 855 856 857 857 858 858 858 858 858 857 857 857 856 855 854 853 853 852 851
814 817 818 823 825 829 831 832 834 836 839 840 842 845 846 847 848 849 850 851 852 853 853 854 854 855 856 857 857 857 858 857 857 856 855 854 853 853 853 852 851 851 850
813 815 816 821 826 828 829 830 832 835 838 840 840 842 844 846 846 847 849 850 851 852 852 853 854 855 855 855 856 856 856 855 854 854 853 852 852 851 851 850 850 850 850
809 812 814 818 823 825 827 829 830 834 835 838 839 840 841 843 845 846 847 848 850 850 851 852 853 853 853 853 853 853 853 852 852 851 850 850 849 849 849 849 848 848 847
808 810 813 817 821 823 824 826 828 831 834 835 837 839 839 841 843 844 845 847 848 849 849 850 851 852 851 852 851 851 850 849 848 848 847 847 846 846 846 846 846 846 845
805 807 809 813 818 821 823 825 826 830 831 833 836 836 838 839 840 843 843 845 847 848 849 848 848 850 849 849 848 848 848 847 846 845 844 844 844 843 842 843 844 843 843
802 804 807 811 814 818 820 822 824 828 829 831 833 835 836 838 838 839 841 844 845 846 847 848 847 846 847 846 845 845 845 845 844 842 841 841 840 840 840 840 841 841 841
799 803 806 808 811 815 817 818 820 824 827 829 831 833 834 835 837 838 840 841 842 843 844 845 845 844 844 843 843 841 840 840 839 838 836 837 837 837 837 838 839 839 839
794 798 803 804 807 810 813 815 817 821 823 827 830 830 830 832 834 836 838 839 839 841 841 842 842 841 841 841 841 840 839 837 835 834 832 835 835 835 835 836 837 838 839
792 794 796 799 803 806 808 812 815 819 821 824 825 826 827 829 831 833 835 837 837 837 838 838 838 838 838 837 838 839 838 839 837 834 834 834 834 834 834 834 835 835 837
787 789 792 794 798 802 804 807 810 813 814 817 820 822 824 826 828 831 831 833 834 833 834 834 834 834 835 834 834 834 834 834 835 836 832 833 833 832 832 831 832 833 833
785 786 787 791 795 798 800 803 805 809 813 814 816 818 820 823 825 828 828 830 831 830 830 830 831 830 831 832 831 831 831 830 831 833 832 831 832 832 832 830 831 831 831
787 787 787 789 793 795 797 800 801 806 807 814 813 814 817 820 823 825 825 826 827 827 827 827 828 828 827 828 827 828 827 827 827 828 829 829 829 831 831 830 830 830 831